Weather in Nizhniy Kurkuzhin

Russia / The Kabardino-Balkar Republic     43°43′47″N   43°20′23″E
В апреле 2022 года жителям России запретили посещать сайт meteo.paraplan.net по решению Генеральной прокуратуры. Аудитория сайта уменьшилась в 10 раз. Владельцы сайта не видят смысла в поддержке погодного сервера в таких условиях. Сайт будет закрыт в октябре.
temp.,
°C
wind,
m/s
gust,
m/s
humid.,
%
clouds,
%
prec.,
mm/h
press.,
hPa
HPBL,
m
25 september, sun
sun2500:00+7wsw22806 0.0 101911
03:00+6sw118159 0.0 102010
06:00+7ssw228585 0.0 102119
09:00+10se237510 0.0 1022423
12:00+12e2265100 0.1 10211189
15:00+13nne316599 0.1 10211090
18:00+11nnw1173100 0.0 102312
21:00+11ssw227383 0.0 102438
26 september, mon
mon2600:00+8wsw22860 0.0 102311
03:00+7wsw22850 0.0 102319
06:00+6wsw22790 0.0 102316
09:00+12ese34610 0.0 1022618
12:00+16ese44510 0.0 1020934
15:00+17ese44485 0.0 1018954
18:00+12se32679 0.0 101927
21:00+11sw22731 0.0 101916
27 september, tue
tue2700:00+10sw226579 0.0 101715
03:00+10sw22511 0.0 101613
06:00+10sw22365 0.0 101512
09:00+17ese223199 0.0 1013258
12:00+20e3338100 0.0 1012629
15:00+19ese4443100 0.0 1011543
18:00+14se2269100 0.0 101110
21:00+13sw22665 0.0 101112
28 september, wed
wed2800:00+13sw2238100 0.0 100911
03:00+13wsw2228100 0.0 100913
06:00+13wsw322191 0.0 100813
09:00+20ene0024100 0.0 1007158
12:00+24ene2122100 0.0 1006472
15:00+23ne212996 0.0 1006490
18:00+16wnw114979 0.0 100911
21:00+15wsw3351100 0.0 101132
29 september, thu
thu2900:00+15wsw3349100 0.0 101142
03:00+16sw334872 0.0 101232
06:00+14wsw225192 0.0 101311
09:00+19e114360 0.0 1013478
12:00+21ene32415 0.0 10131485
15:00+22e334085 0.0 10131587
18:00+18se225584 0.1 101529
21:00+15sw326463 0.2 101623